* Astronomy

Members Login
Username 
 
Password 
    Remember Me  
Post Info TOPIC: Minotaur 1 Rocket body re-entry


L

Posts: 131433
Date:
RE: Minotaur 1 Rocket body re-entry
Permalink  
 


Update:
The Minotaur 1 Rocket body re-entered the Earths atmosphere on the 20th May, 2012 @ 00:57 GMT ± 7 minutes.

Inclination: 40.00°
Revolution Number:  5107
Predicted Location:   34°S, 302°E



__________________


L

Posts: 131433
Date:
Permalink  
 

Update:
The Minotaur 1 Rocket body is predicted to re-enter the Earths atmosphere on the 20th May, 2012 @ 01:05 GMT ± 5 hours.

MINOTAUR RB
1 37729U 11029B   12139.70776945 +.02636682 +67062-5 +57385-3 0 03828
2 37729 039.9774 256.3030 0003574 076.5957 283.5535 16.29501315050870

Period:       88.47 minutes
Inclination: 40.00°
Apogee:     205 km
Perigee:     192 km 
Revolution Number:  5107
Predicted Location:   20°S, 327.6°E



__________________


L

Posts: 131433
Date:
Permalink  
 

Update:
The Minotaur 1 Rocket body is predicted to re-enter the Earths atmosphere on the 20th May, 2012 @ 02:05 GMT ± 19 hours.

MINOTAUR RB
1 37729U 11029B   12138.72579775 +.01626457 +66559-5 +58208-3 0 03789
2 37729 040.0021 263.0884 0007249 044.8289 315.3433 16.23855240050716

Period:       88.74 minutes
Inclination: 40.00°
Apogee:     217 km
Perigee:     208 km 
Revolution Number:  5110
Predicted Location:   17.6°S, 180.4°E



__________________


L

Posts: 131433
Date:
Permalink  
 

mon1b.gif
Expand (26kb, 857 x 564)



__________________


L

Posts: 131433
Date:
Permalink  
 

Update:
The Minotaur 1 Rocket body is predicted to re-enter the Earths atmosphere on the 20th May, 2012 @ 00:10 GMT ± 24 hours.

MINOTAUR RB
1 37729U 11029B   12137.74096602 +.01519069 +65868-5 +71273-3 0 03760
2 37729 039.9818 269.7632 0009691 002.4148 357.7748 16.20473118050556

Period:       88.92 minutes
Inclination: 39.98°
Apogee:     229 km
Perigee:     213 km 
Revolution Number:  5107
Predicted Location:   40°N, 102.8°E



__________________


L

Posts: 131433
Date:
Permalink  
 

A Minotaur 1 Rocket body that was launched on the 30th June, 2011, from the Mid-Atlantic Regional Spaceport at Virginia's Wallops Island, for the ORS-1 satellite mission is predicted to re-enter the Earths atmosphere on the 20th May, 2012 @ 05:00 GMT ± 48 hours.

MINOTAUR RB
1 37729U 11029B   12137.74096602 +.01519069 +65868-5 +71273-3 0 03760
2 37729 039.9818 269.7632 0009691 002.4148 357.7748 16.20473118050556

Period:       88.92 minutes
Inclination: 39.97°
Apogee:     229 km
Perigee:     213 km 
Revolution Number:  5111
Predicted Location:   29.5°S, 154.1°E



__________________
Page 1 of 1  sorted by
 
Quick Reply

Please log in to post quick replies.



Create your own FREE Forum
Report Abuse
Powered by ActiveBoard